Santa Ana, CA

5:50 PM PDT on July 25, 2017 (GMT -0700)
John Wayne-Orange County

Weather History for KSNA - May, 2013

Change the Weather History Date:

Thursday, May 2, 2013

  Actual Average Record
Temperature  
Mean Temperature 75 °F 64 °F  
Max Temperature 91 °F 71 °F 98 °F (2004)
Min Temperature 59 °F 56 °F 52 °F (2002)
Degree Days  
Heating Degree Days 0 2  
Month to date heating degree days 0 5  
Since 1 July heating degree days 1087 1212  
Cooling Degree Days 10 1  
Month to date cooling degree days 11 2  
Year to date cooling degree days 18 31  
Growing Degree Days 24 (Base 50)    
Moisture  
Dew Point 52 °F    
Average Humidity 52    
Maximum Humidity 87    
Minimum Humidity 17    
Precipitation  
Precipitation 0.00 in 0.02 in 0.25 in (2003)
Month to date precipitation 0.00 0.04  
Year to date precipitation 1.68 8.69  
Since 1 July precipitation 4.70  
Snow  
Snow 0.00 in - - ()
Month to date snowfall 0.0  
Year to date snowfall 0.0  
Snow Depth 0.00 in    
Sea Level Pressure  
Sea Level Pressure 30.06 in    
Wind  
Wind Speed 4 mph (WSW)    
Max Wind Speed 12 mph    
Max Gust Speed 17 mph    
Visibility 9 miles    
Events      
T = Trace of Precipitation, MM = Missing Value Source: NWS Daily Summary

Daily Weather History Graph

Daily Weather History Graph

Search for Another Location

Airport or City:

Trip Planner

Search our weather history database for the weather conditions in past years. The results will help you decide how hot, cold, wet, or windy it might be!

Date:

Astronomy

May. 02, 2013 Rise Set
Actual Time 6:01 AM PDT 7:35 PM PDT
Civil Twilight 5:34 AM PDT 8:02 PM PDT
Nautical Twilight 5:02 AM PDT 8:34 PM PDT
Astronomical Twilight 4:29 AM PDT 9:08 PM PDT
Moon 1:30 AM PDT (5/2) 12:50 PM PDT (5/2)
Length of Visible Light 14h 27m
Length of Day
13h 34m
Waning Gibbous, 46% of the Moon is Illuminated
May 2
Waning Gibbous
May 9
New
May 17
First Quarter
May 24
Full
May 31
Last Quarter

Hourly Weather History & Observations

Time (PDT) Temp. Dew Point Humidity Pressure Visibility Wind Dir Wind Speed Gust Speed Precip Events Conditions
12:53 AM 60.1 °F 55.0 °F 83% 30.10 in 10.0 mi Calm Calm - N/A   Clear
1:53 AM 60.1 °F 55.0 °F 83% 30.09 in 10.0 mi Calm Calm - N/A   Partly Cloudy
2:12 AM 60.8 °F 55.4 °F 82% 30.09 in 10.0 mi Calm Calm - N/A   Mostly Cloudy
2:53 AM 60.1 °F 55.9 °F 86% 30.08 in 10.0 mi Calm Calm - N/A   Scattered Clouds
2:55 AM 60.8 °F 55.4 °F 82% 30.08 in 10.0 mi Calm Calm - N/A   Mostly Cloudy
3:37 AM 60.8 °F 55.4 °F 82% 30.08 in 10.0 mi Calm Calm - N/A   Overcast
3:53 AM 60.1 °F 54.0 °F 80% 30.08 in 10.0 mi Calm Calm - N/A   Overcast
4:53 AM 60.1 °F 54.0 °F 80% 30.08 in 10.0 mi Calm Calm - N/A   Mostly Cloudy
5:01 AM 60.8 °F 53.6 °F 77% 30.08 in 10.0 mi Calm Calm - N/A   Scattered Clouds
5:40 AM 59.0 °F 53.6 °F 82% 30.08 in 9.0 mi Calm Calm - N/A   Mostly Cloudy
5:51 AM 59.0 °F 53.6 °F 82% 30.08 in 9.0 mi Calm Calm - N/A   Partly Cloudy
5:53 AM 59.0 °F 54.0 °F 83% 30.09 in 9.0 mi Calm Calm - N/A   Partly Cloudy
6:36 AM 59.0 °F 53.6 °F 82% 30.09 in 6.0 mi Calm Calm - N/A   Haze
6:40 AM 59.0 °F 53.6 °F 82% 30.09 in 6.0 mi Calm Calm - N/A   Haze
6:50 AM 59.0 °F 53.6 °F 82% 30.09 in 6.0 mi Calm Calm - N/A   Haze
6:53 AM 59.0 °F 55.0 °F 87% 30.10 in 6.0 mi Calm Calm - N/A   Mostly Cloudy
7:23 AM 60.8 °F 55.4 °F 82% 30.10 in 7.0 mi WSW 3.5 mph - N/A   Scattered Clouds
7:53 AM 61.0 °F 55.0 °F 81% 30.11 in 7.0 mi West 4.6 mph - N/A   Scattered Clouds
8:53 AM 66.0 °F 55.0 °F 68% 30.11 in 10.0 mi SSW 5.8 mph - N/A   Partly Cloudy
9:53 AM 69.8 °F 55.4 °F 60% 30.11 in 10.0 mi SW 8.1 mph - N/A   Scattered Clouds
10:53 AM 73.4 °F 55.4 °F 53% 30.11 in 10.0 mi Variable 5.8 mph - N/A   Partly Cloudy
11:53 AM 78.1 °F 53.1 °F 42% 30.09 in 10.0 mi West 8.1 mph - N/A   Clear
12:53 PM 84.9 °F 48.0 °F 28% 30.07 in 10.0 mi SSW 5.8 mph - N/A   Clear
1:53 PM 82.9 °F 48.0 °F 29% 30.05 in 10.0 mi WSW 8.1 mph - N/A   Clear
2:53 PM 84.9 °F 45.0 °F 25% 30.03 in 10.0 mi West 8.1 mph - N/A   Clear
3:53 PM 89.1 °F 39.0 °F 17% 30.00 in 10.0 mi West 8.1 mph - N/A   Clear
4:53 PM 88.0 °F 41.0 °F 19% 29.98 in 10.0 mi West 10.4 mph - N/A   Clear
5:53 PM 88.0 °F 43.0 °F 21% 29.96 in 10.0 mi West 5.8 mph - N/A   Clear
6:53 PM 81.0 °F 51.1 °F 35% 29.96 in 10.0 mi WNW 5.8 mph - N/A   Clear
7:53 PM 77.0 °F 52.0 °F 42% 29.97 in 10.0 mi SW 4.6 mph - N/A   Clear
8:53 PM 77.0 °F 37.0 °F 24% 29.99 in 10.0 mi Calm Calm - N/A   Clear
9:53 PM 68.0 °F 54.0 °F 61% 30.00 in 10.0 mi SW 5.8 mph - N/A   Clear
10:53 PM 66.9 °F 52.0 °F 59% 30.00 in 10.0 mi Calm Calm - N/A   Clear
11:53 PM 62.1 °F 53.1 °F 72% 30.01 in 10.0 mi SSW 5.8 mph - N/A   Clear